Location: Prairie View Elementary School
(39.8322°N, 99.5698°W)
Time: 19:52:49
(UTC+00:00)

Cosmos 2237 Rocket - Pass Details

Date: 08 December 2019
Orbit: 836 x 849 km, 71.0° (Epoch: 22 January)

Event Time Altitude Azimuth Distance (km) Brightness Sun altitude
Rises 01:00:19 0° 216° (SW) 3,398 6.1 -19.9°
Reaches altitude 10° 01:02:49 10° 222° (SW) 2,466 5.4 -20.4°
Maximum altitude 01:08:19 51° 297° (WNW) 1,063 3.0 -21.4°
Enters shadow 01:13:10 14° 11° (N) 2,232 4.2 -22.3°
